{"data":{"norad_id":57091,"intl_designator":"2023-088AV","name":"STARLINK-6262","alt_names":[],"object_type":"PAYLOAD","status":"ACTIVE","operator":null,"country":"US","launch_date":"2023-06-22","launch_site_code":"AFWTR","launch_vehicle":null,"mission":null,"orbit_class":"UNKNOWN","rcs_meters":null,"size_class":null,"mass_kg":null,"dimensions":null,"purposes":["comms"],"wikipedia_slug":null,"has_3d_model":false,"image_url":null,"decayed_at":null,"tle_current":{"epoch":"2026-05-24T22:27:15.115104Z","epoch_age_seconds":87572,"freshness":"FRESH","line1":"1 57091U 23088AV  26144.93559161  .00000628  00000+0  32358-4 0  9999","line2":"2 57091  43.0062  25.3120 0001313 262.7233  97.3470 15.27575222162169","mean_motion":15.27575222,"eccentricity":0.0001313,"inclination_deg":43.0062,"raan_deg":25.312,"arg_perigee_deg":262.7233,"mean_anomaly_deg":97.347,"bstar":3.2358e-5,"rev_number":16216,"period_min":94.267043564287,"perigee_km":482.16252751489,"apogee_km":483.96427874075,"semimajor_km":6861.2004031278,"source":"CELESTRAK","updated_at":"2026-05-25T13:38:18.217937Z"}}}